Location: Covington Post Office
(32.1789°N, 97.2563°W)
Time: 12:07:15
(UTC+00:00)

Daily predictions for brighter satellites

Satellite Brightness Start Highest point End
(mag) Time Altitude Azimuth Time Altitude Azimuth Time Altitude Azimuth
Cosmos 1933 3.1 12:01:33 14° NNW 12:04:42 58° W 12:08:26 10° S
SKYMED 2 3.5 12:02:29 10° S 12:06:46 63° W 12:11:05 10° NNW
Cosmos 2098 Rocket 4.5 12:04:58 14° NNW 12:09:10 31° W 12:14:06 10° SSW
H-II Stage 2 4.0 12:06:45 14° WSW 12:09:27 24° SSW 12:11:23 10° SE
COSMO-SKYMED 1 2.3 12:09:10 10° S 12:13:16 83° W 12:17:24 10° NNW
CBERS-1 4.4 12:10:23 10° NNE 12:15:27 67° ESE 12:20:29 10° S
ATLAS 2AS CENTAUR R/B 4.5 12:09:07 10° S 12:15:31 36° ESE 12:21:46 10° NE
Cosmos 2058 Rocket 4.2 12:12:45 10° N 12:17:01 46° E 12:21:13 10° SSE
CZ-3C R/B 3.6 12:13:21 10° SW 12:17:39 36° SSE 12:37:48 10° E
Cosmos-2242 4.2 12:14:52 10° N 12:18:52 42° E 12:22:51 10° SSE
COSMOS 2406 3.7 12:14:18 10° SW 12:19:25 34° WNW 12:24:34 10° N
Cosmos 2237 4.3 12:17:05 10° NNW 12:22:48 84° ENE 12:28:29 10° SSE
Thor Agena Rocket 4.3 12:20:46 10° NNE 12:25:43 55° ESE 12:30:37 10° S
SMAP 4.2 12:21:48 10° NNE 12:26:18 49° E 12:30:48 10° S
Meteor 2-20 4.4 12:23:24 10° N 12:29:31 84° W 12:35:34 10° S
Cosmos 2082 Rocket 3.8 12:31:41 12° WNW 12:33:19 13° NW 12:35:56 10° NNW
SL-24 R/B - RUBIN 2 4.5 12:31:09 12° NW 12:34:35 30° WSW 12:38:29 10° S
SL-8 R/B 4.1 12:32:41 12° WNW 12:36:55 49° SW 12:41:28 10° SSE
COSMOS 2455 2.9 12:31:01 10° NNW 12:36:57 63° WSW 12:42:51 10° S
SL-16 R/B 2.7 12:33:33 10° NNW 12:39:10 62° ENE 12:44:45 10° SSE
CZ-2D R/B 3.9 12:38:59 10° NNE 12:42:03 48° E 12:45:07 10° S
OAO 2 Rocket 3.8 12:38:05 10° WSW 12:43:11 64° SSE 12:48:12 10° ENE
Cosmos 405 Rocket 2.3 12:41:15 10° S 12:44:29 85° E 12:47:44 10° N
OAO 3 Rocket 4.3 12:44:01 10° SW 12:48:30 45° SSE 12:53:02 10° E
Cosmos 1758 Rocket 3.7 12:44:21 10° S 12:48:47 86° E 12:53:13 10° N
Meteor 2-20 Rocket 4.3 12:46:03 10° N 12:51:47 78° W 12:57:28 10° S
Cosmos 1484 Rocket 3.7 12:50:34 10° NNW 12:53:12 21° WNW 12:55:49 10° WSW
Delta 2 Rocket 2.4 12:50:12 10° WNW 12:53:14 87° NNE 12:56:12 10° ESE
Okean 1 2.9 12:51:25 10° N 12:54:58 74° W 12:58:29 10° S
SL-08 ROCKET BODY 4.4 12:49:15 10° S 12:55:06 82° W 13:00:58 10° N
Cosmos 158 Rocket 4.0 12:51:49 10° SSW 12:57:08 69° WNW 13:02:25 10° N
SL-08 ROCKET BODY 4.5 23:43:56 10° N 23:49:48 58° E 23:55:45 10° SSE
Cosmos 1503 Rocket 4.1 23:45:47 10° S 23:50:58 62° ESE 23:56:08 10° NNE
Cosmos 1782 3.1 23:50:39 10° SSW 23:54:11 61° W 23:57:45 10° N
USA 276 1.8 23:57:02 10° WNW 23:58:09 31° SW 23:59:16 10° SSE
